Back to catalog

CZ-6A DEB

AlivePO
NORAD 61088·DEBRIS·🇨🇳 China

Launched Aug 6, 2024 from Taiyuan Satellite Launch Center

Loading…

Next Passes (next 24 hours)

TLE

FreshSource: Space-Track

Epoch: Sep 14, 2026, 06:51 UTC

1 61088U 24140NE  26257.28608070  .00000619  00000-0  27067-3 0  9998
2 61088  88.9782 262.8030 0036222 241.8464 117.9066 14.22307546106261

Track CZ-6A DEB in real time with AllMySat

Download on the App Store